Flag for Germany Weather past 2 weeks in Melsungen, Hesse, Germany

Now
38 °F

Chilly.


Feels Like: 34 °F
Forecast: 30 / 38 °F
Wind: 6 mph from West

Location: Fritzlar

Current Time: Dec 25, 2014 at 6:20:39 PM

Latest Report: Dec 25, 2014 at 6:00 PM


Visibility: 11 mi

Pressure: 30.22 "Hg

Humidity: 83%

Dew point: 34 °F

Location of MelsungenLocation

Historic Weather in Melsungen — Graph

°F

Melsungen temperature yesterday

Maximum temperature yesterday: 47 °F (at 12:00 AM)
Minimum temperature yesterday: 42 °F (at 11:00 PM)
Average temperature yesterday: 45 °F

Past Weeks' High & Low Weather Summary

 TemperatureHumidityPressure
High56 °F (Dec 18, 9:00 PM)97% (Dec 13, 11:00 PM)30.41 "Hg (Dec 13, 11:00 PM)
Low31 °F (Dec 14, 11:00 PM)67% (Dec 19, 11:00 PM)29.47 "Hg (Dec 12, 7:00 PM)
Average42 °F86%29.97 "Hg
* Reported Dec 10 5:00 PM — Dec 25 5:00 PM, Melsungen, Weather by CustomWeather, © 2014

Note: Actual official high and low records may vary slightly from our data, if they occured in-between our weather recording intervals... More about our weather records

Advertising

Melsungen weather history for previous 24 hours

 ConditionsComfort  
Time TempWeatherWind HumidityBarometerVisibility
5:00 PM
Dec 25
40 °FChilly.2 mph80%30.20 "Hg11 mi
4:00 PM40 °FChilly.5 mph83%30.19 "Hg12 mi
3:00 PM41 °FQuite cool.5 mph82%30.19 "Hg9 mi
2:00 PM42 °FQuite cool.5 mph77%30.18 "Hg9 mi
1:00 PM43 °FQuite cool.7 mph73%30.17 "Hg12 mi
12:00 PM41 °FQuite cool.6 mph82%30.18 "Hg11 mi
11:00 AM40 °FQuite cool.6 mph81%30.19 "Hg11 mi
10:00 AM40 °FChilly.6 mph81%30.17 "Hg10 mi
9:00 AM39 °FChilly.6 mph81%30.16 "Hg10 mi
8:00 AM40 °FChilly.5 mph78%30.16 "Hg12 mi
7:00 AM39 °FChilly.5 mph79%30.14 "Hg12 mi
6:00 AM39 °FChilly.5 mph80%30.14 "Hg12 mi
5:00 AM38 °FChilly.5 mph83%30.14 "Hg11 mi
4:00 AM37 °FChilly.3 mph83%30.14 "Hg12 mi
3:00 AM38 °FChilly.5 mph79%30.14 "Hg11 mi
2:00 AM36 °FChilly.5 mph89%30.14 "Hg11 mi
1:00 AM37 °FChilly.3 mph85%30.12 "Hg11 mi
12:00 AM41 °FQuite cool.2 mph82%30.10 "Hg12 mi
11:00 PM
Dec 24
42 °FQuite cool.5 mph87%30.09 "Hg2 mi
10:00 PM43 °FQuite cool.5 mph85%30.04 "Hg12 mi
9:00 PM44 °FQuite cool.3 mph90%30.02 "Hg9 mi
8:00 PM46 °FCool.5 mph91%29.99 "Hg4 mi
7:00 PM46 °FCool.7 mph90%29.98 "Hg7 mi
6:00 PM46 °FCool.7 mph90%29.97 "Hg4 mi
Weather by CustomWeather, © 2014

See weather overviewHow to use our weather pages